EZY8467 EGKK-LFRB

Flight info

Callsign EZY8467
Flight time 0h 50m
Altitude 29000
Route IMVUR N63 SAM M195 MARUK N621 LELNA DCT BADUR T120 ANLEV
Aircraft A320/M-SDE3FGHIRWY/LB1

Departure

Time 2026-05-06 07:20
Airport London Gatwick Airport (EGKK)

Arrival

Time 2026-05-06 08:10
Airport Brest Bretagne airport (LFRB)
Time Latitude Longitude Altitude Speed Heading
2026-05-06 07:03 51.15246 -0.18851 211 ft 0 kts 258°
2026-05-06 07:11 51.15249 -0.18829 209 ft 4 kts 255°
2026-05-06 07:11 51.15257 -0.18788 209 ft 4 kts 244°
2026-05-06 07:12 51.15271 -0.18753 211 ft 4 kts 218°
2026-05-06 07:12 51.15290 -0.18741 213 ft 1 kts 168°
2026-05-06 07:12 51.15294 -0.18743 214 ft 0 kts 168°
2026-05-06 07:15 51.15293 -0.18742 214 ft 1 kts 168°
2026-05-06 07:15 51.15238 -0.18724 208 ft 10 kts 168°
2026-05-06 07:15 51.15169 -0.18704 213 ft 13 kts 182°
2026-05-06 07:15 51.15115 -0.18852 216 ft 19 kts 258°
2026-05-06 07:16 51.15084 -0.19066 211 ft 21 kts 257°
2026-05-06 07:16 51.15054 -0.19299 210 ft 22 kts 258°
2026-05-06 07:16 51.15018 -0.19549 210 ft 24 kts 257°
2026-05-06 07:16 51.14983 -0.19819 212 ft 26 kts 258°
2026-05-06 07:17 51.14941 -0.20103 213 ft 26 kts 255°
2026-05-06 07:17 51.14902 -0.20397 205 ft 28 kts 258°
2026-05-06 07:17 51.14860 -0.20681 205 ft 25 kts 256°
2026-05-06 07:17 51.14823 -0.20957 210 ft 24 kts 258°
2026-05-06 07:18 51.14788 -0.21176 211 ft 21 kts 253°
2026-05-06 07:18 51.14745 -0.21395 208 ft 18 kts 229°
2026-05-06 07:18 51.14679 -0.21380 212 ft 9 kts 150°
2026-05-06 07:18 51.14629 -0.21333 207 ft 8 kts 154°
2026-05-06 07:19 51.14575 -0.21303 206 ft 11 kts 158°
2026-05-06 07:19 51.14520 -0.21185 210 ft 15 kts 94°
2026-05-06 07:19 51.14540 -0.21025 216 ft 19 kts 77°
2026-05-06 07:19 51.14625 -0.20439 212 ft 90 kts 76°
2026-05-06 07:20 51.14812 -0.19143 210 ft 148 kts 77°
2026-05-06 07:20 51.15032 -0.17385 563 ft 167 kts 75°
2026-05-06 07:20 51.15268 -0.15581 1366 ft 165 kts 73°
2026-05-06 07:20 51.15526 -0.13725 1916 ft 181 kts 73°
2026-05-06 07:21 51.15825 -0.11629 2271 ft 206 kts 73°
2026-05-06 07:21 51.16148 -0.09336 2894 ft 218 kts 73°
2026-05-06 07:21 51.16514 -0.06990 3745 ft 219 kts 64°
2026-05-06 07:21 51.17493 -0.05208 4507 ft 218 kts 23°
2026-05-06 07:22 51.18970 -0.04897 5306 ft 219 kts 350°
2026-05-06 07:22 51.20471 -0.05365 6161 ft 221 kts 346°
2026-05-06 07:22 51.21898 -0.06270 6937 ft 224 kts 320°
2026-05-06 07:22 51.22763 -0.08363 7568 ft 240 kts 286°
2026-05-06 07:23 51.22796 -0.11118 7966 ft 265 kts 265°
2026-05-06 07:23 51.22495 -0.14089 8678 ft 276 kts 261°
2026-05-06 07:23 51.22100 -0.17120 9506 ft 282 kts 260°
2026-05-06 07:23 51.21682 -0.20205 10291 ft 287 kts 260°
2026-05-06 07:24 51.21266 -0.23343 11088 ft 290 kts 261°
2026-05-06 07:24 51.20864 -0.26515 11905 ft 293 kts 261°
2026-05-06 07:24 51.20471 -0.29718 12711 ft 296 kts 261°
2026-05-06 07:24 51.20084 -0.32957 13508 ft 299 kts 261°
2026-05-06 07:25 51.19693 -0.36234 14284 ft 302 kts 260°
2026-05-06 07:25 51.19278 -0.39529 15031 ft 304 kts 259°
2026-05-06 07:25 51.18845 -0.42843 15763 ft 306 kts 259°
2026-05-06 07:25 51.18404 -0.46170 16506 ft 308 kts 259°
2026-05-06 07:26 51.17968 -0.49479 17185 ft 311 kts 259°
2026-05-06 07:26 51.17494 -0.52865 17873 ft 315 kts 255°
2026-05-06 07:26 51.16709 -0.56205 18159 ft 333 kts 249°
2026-05-06 07:26 51.15782 -0.59709 18322 ft 352 kts 248°
2026-05-06 07:27 51.14809 -0.63337 18718 ft 360 kts 248°
2026-05-06 07:27 51.13813 -0.67027 19247 ft 364 kts 248°
2026-05-06 07:27 51.12805 -0.70756 19817 ft 368 kts 248°
2026-05-06 07:27 51.11795 -0.74512 20427 ft 370 kts 248°
2026-05-06 07:28 51.10786 -0.78286 21043 ft 372 kts 248°
2026-05-06 07:28 51.09769 -0.82096 21612 ft 376 kts 248°
2026-05-06 07:28 51.07697 -0.89805 22766 ft 381 kts 247°
2026-05-06 07:29 51.06645 -0.93691 23339 ft 384 kts 247°
2026-05-06 07:29 51.05582 -0.97617 23799 ft 388 kts 247°
2026-05-06 07:29 51.04509 -1.01578 24244 ft 392 kts 248°
2026-05-06 07:29 51.03444 -1.05509 24693 ft 394 kts 248°
2026-05-06 07:30 51.02358 -1.09514 25127 ft 396 kts 248°
2026-05-06 07:30 51.01260 -1.13550 25519 ft 399 kts 248°
2026-05-06 07:30 51.00151 -1.17606 25952 ft 401 kts 248°
2026-05-06 07:30 50.99037 -1.21672 26379 ft 403 kts 247°
2026-05-06 07:31 50.97915 -1.25767 26755 ft 406 kts 247°
2026-05-06 07:31 50.96700 -1.29837 27132 ft 409 kts 241°
2026-05-06 07:31 50.95078 -1.33566 27542 ft 413 kts 231°
2026-05-06 07:31 50.93066 -1.36839 27899 ft 417 kts 221°
2026-05-06 07:32 50.90711 -1.39563 28257 ft 421 kts 215°
2026-05-06 07:32 50.88256 -1.42114 28625 ft 423 kts 214°
2026-05-06 07:32 50.85777 -1.44681 28922 ft 427 kts 214°
2026-05-06 07:32 50.83297 -1.47246 28998 ft 422 kts 214°
2026-05-06 07:33 50.80887 -1.49737 29000 ft 408 kts 215°
2026-05-06 07:33 50.78526 -1.52176 29003 ft 404 kts 215°
2026-05-06 07:33 50.73841 -1.57017 29001 ft 401 kts 215°
2026-05-06 07:34 50.69200 -1.61822 29002 ft 401 kts 215°
2026-05-06 07:34 50.64524 -1.66640 29001 ft 401 kts 215°
2026-05-06 07:35 50.59842 -1.71437 28993 ft 401 kts 215°
2026-05-06 07:35 50.55174 -1.76221 28993 ft 400 kts 214°
2026-05-06 07:36 50.50512 -1.80983 28991 ft 400 kts 214°
2026-05-06 07:36 50.45846 -1.85743 28989 ft 399 kts 215°
2026-05-06 07:37 50.41180 -1.90490 28979 ft 400 kts 214°
2026-05-06 07:37 50.37294 -1.94430 28961 ft 401 kts 215°
2026-05-06 07:38 50.32596 -1.99175 28965 ft 402 kts 214°
2026-05-06 07:38 50.27896 -2.03927 28964 ft 403 kts 214°
2026-05-06 07:39 50.25404 -2.05949 28963 ft 405 kts 203°
2026-05-06 07:39 50.22711 -2.07267 28964 ft 407 kts 193°
2026-05-06 07:39 50.17065 -2.08209 28960 ft 408 kts 186°
2026-05-06 07:40 50.11408 -2.08943 28968 ft 408 kts 186°
2026-05-06 07:40 50.05757 -2.09675 28970 ft 407 kts 186°
2026-05-06 07:41 50.00181 -2.10442 28966 ft 406 kts 190°
2026-05-06 07:41 49.94879 -2.12939 28959 ft 402 kts 206°
2026-05-06 07:42 49.89772 -2.16435 28974 ft 400 kts 205°
2026-05-06 07:42 49.84680 -2.19883 28979 ft 399 kts 205°
2026-05-06 07:43 49.79597 -2.23317 28976 ft 398 kts 205°
2026-05-06 07:43 49.74531 -2.26758 28960 ft 398 kts 205°
2026-05-06 07:44 49.69440 -2.30207 28942 ft 401 kts 205°
2026-05-06 07:44 49.64322 -2.33657 28950 ft 402 kts 205°
2026-05-06 07:45 49.59183 -2.37102 28948 ft 403 kts 205°
2026-05-06 07:45 49.54039 -2.40546 28952 ft 403 kts 205°
2026-05-06 07:46 49.48892 -2.43997 28944 ft 403 kts 205°
2026-05-06 07:46 49.43754 -2.47433 28979 ft 401 kts 205°
2026-05-06 07:47 49.38670 -2.50821 28984 ft 400 kts 205°
2026-05-06 07:47 49.33569 -2.54207 28983 ft 399 kts 205°
2026-05-06 07:48 49.28466 -2.57589 28983 ft 399 kts 205°
2026-05-06 07:48 49.25925 -2.59271 28794 ft 395 kts 205°
2026-05-06 07:48 49.23422 -2.60924 28381 ft 389 kts 205°
2026-05-06 07:49 49.20948 -2.62556 27930 ft 385 kts 205°
2026-05-06 07:49 49.18507 -2.64167 27494 ft 380 kts 205°
2026-05-06 07:49 49.16088 -2.65761 27056 ft 377 kts 205°
2026-05-06 07:49 49.13694 -2.67338 26638 ft 373 kts 205°
2026-05-06 07:50 49.11321 -2.68896 26220 ft 369 kts 205°
2026-05-06 07:50 49.08967 -2.70437 25788 ft 366 kts 205°
2026-05-06 07:50 49.06637 -2.71963 25366 ft 363 kts 205°
2026-05-06 07:50 49.04326 -2.73475 24922 ft 360 kts 205°
2026-05-06 07:51 49.02029 -2.74978 24491 ft 358 kts 205°
2026-05-06 07:51 48.99750 -2.76472 24050 ft 356 kts 205°
2026-05-06 07:51 48.97479 -2.77961 23593 ft 354 kts 205°
2026-05-06 07:51 48.95218 -2.79442 23083 ft 353 kts 205°
2026-05-06 07:52 48.92972 -2.80910 22633 ft 350 kts 205°
2026-05-06 07:52 48.90744 -2.82365 22191 ft 347 kts 205°
2026-05-06 07:52 48.88528 -2.83805 21747 ft 345 kts 205°
2026-05-06 07:52 48.86325 -2.85233 21302 ft 343 kts 205°
2026-05-06 07:53 48.84132 -2.86657 20869 ft 342 kts 205°
2026-05-06 07:53 48.81977 -2.88055 20439 ft 341 kts 205°
2026-05-06 07:53 48.79801 -2.89461 20012 ft 340 kts 205°
2026-05-06 07:53 48.77626 -2.90868 19579 ft 339 kts 205°
2026-05-06 07:54 48.75459 -2.92277 19152 ft 338 kts 205°
2026-05-06 07:54 48.73428 -2.94030 18730 ft 335 kts 219°
2026-05-06 07:54 48.71748 -2.96450 18314 ft 332 kts 233°
2026-05-06 07:54 48.70513 -2.99378 17845 ft 329 kts 247°
2026-05-06 07:55 48.69770 -3.02630 17414 ft 326 kts 257°
2026-05-06 07:55 48.69205 -3.05947 16984 ft 324 kts 257°
2026-05-06 07:55 48.68663 -3.09245 16589 ft 322 kts 258°
2026-05-06 07:55 48.68142 -3.12537 16189 ft 321 kts 258°
2026-05-06 07:56 48.67639 -3.15756 15802 ft 319 kts 258°
2026-05-06 07:56 48.67130 -3.19018 15406 ft 318 kts 258°
2026-05-06 07:56 48.66617 -3.22275 15016 ft 317 kts 258°
2026-05-06 07:56 48.66102 -3.25514 14628 ft 316 kts 258°
2026-05-06 07:57 48.65583 -3.28741 14235 ft 315 kts 257°
2026-05-06 07:57 48.65063 -3.31958 13843 ft 315 kts 257°
2026-05-06 07:57 48.64541 -3.35182 13408 ft 316 kts 257°
2026-05-06 07:57 48.64018 -3.38409 13011 ft 315 kts 257°
2026-05-06 07:58 48.63506 -3.41584 12617 ft 314 kts 257°
2026-05-06 07:58 48.62988 -3.44791 12226 ft 313 kts 257°
2026-05-06 07:58 48.62477 -3.47940 12086 ft 304 kts 257°
2026-05-06 07:58 48.61975 -3.51018 11838 ft 299 kts 257°
2026-05-06 07:59 48.61483 -3.54039 11284 ft 295 kts 258°
2026-05-06 07:59 48.60996 -3.57037 10684 ft 291 kts 258°
2026-05-06 07:59 48.60515 -3.59948 10268 ft 281 kts 257°
2026-05-06 07:59 48.60043 -3.62759 9886 ft 271 kts 257°
2026-05-06 08:00 48.59592 -3.65443 9490 ft 262 kts 257°
2026-05-06 08:00 48.59139 -3.68146 9123 ft 262 kts 258°
2026-05-06 08:00 48.58702 -3.70773 8751 ft 260 kts 258°
2026-05-06 08:00 48.58264 -3.73419 8374 ft 260 kts 258°
2026-05-06 08:01 48.57825 -3.76065 7999 ft 260 kts 257°
2026-05-06 08:01 48.57384 -3.78704 7609 ft 259 kts 257°
2026-05-06 08:01 48.56941 -3.81338 7220 ft 258 kts 257°
2026-05-06 08:01 48.56497 -3.83963 6828 ft 258 kts 256°
2026-05-06 08:02 48.56051 -3.86589 6431 ft 259 kts 257°
2026-05-06 08:02 48.55606 -3.89223 6006 ft 259 kts 256°
2026-05-06 08:02 48.55160 -3.91863 5585 ft 260 kts 256°
2026-05-06 08:02 48.54713 -3.94506 5171 ft 260 kts 257°
2026-05-06 08:03 48.54273 -3.97098 5065 ft 249 kts 257°
2026-05-06 08:03 48.53914 -3.99562 4995 ft 230 kts 264°
2026-05-06 08:03 48.53668 -4.01828 4925 ft 210 kts 257°
2026-05-06 08:03 48.53286 -4.03815 4882 ft 189 kts 253°
2026-05-06 08:04 48.52897 -4.05607 4760 ft 171 kts 253°
2026-05-06 08:04 48.52528 -4.07274 4700 ft 166 kts 253°
2026-05-06 08:04 48.52174 -4.08871 4610 ft 156 kts 253°
2026-05-06 08:04 48.51834 -4.10399 4442 ft 153 kts 253°
2026-05-06 08:05 48.51498 -4.11914 4263 ft 152 kts 253°
2026-05-06 08:05 48.51160 -4.13429 4063 ft 153 kts 254°
2026-05-06 08:05 48.50822 -4.14948 3856 ft 153 kts 254°
2026-05-06 08:05 48.50484 -4.16464 3644 ft 152 kts 255°
2026-05-06 08:06 48.50148 -4.17967 3444 ft 150 kts 254°
2026-05-06 08:06 48.49814 -4.19463 3236 ft 150 kts 255°
2026-05-06 08:06 48.49482 -4.20947 3023 ft 149 kts 253°
2026-05-06 08:06 48.49151 -4.22426 2828 ft 148 kts 256°
2026-05-06 08:07 48.48820 -4.23907 2625 ft 149 kts 255°
2026-05-06 08:07 48.48492 -4.25372 2445 ft 146 kts 256°
2026-05-06 08:07 48.48174 -4.26791 2230 ft 143 kts 254°
2026-05-06 08:07 48.47853 -4.28221 2028 ft 142 kts 256°
2026-05-06 08:08 48.47538 -4.29626 1832 ft 141 kts 256°
2026-05-06 08:08 48.47223 -4.31028 1647 ft 141 kts 256°
2026-05-06 08:08 48.46913 -4.32408 1450 ft 141 kts 256°
2026-05-06 08:08 48.46600 -4.33801 1244 ft 140 kts 257°
2026-05-06 08:09 48.46287 -4.35190 1054 ft 141 kts 258°
2026-05-06 08:09 48.45972 -4.36591 864 ft 141 kts 258°
2026-05-06 08:09 48.45661 -4.37993 656 ft 142 kts 255°
2026-05-06 08:09 48.45341 -4.39396 436 ft 142 kts 252°
2026-05-06 08:10 48.45032 -4.40784 324 ft 137 kts 251°
2026-05-06 08:10 48.44780 -4.41893 334 ft 73 kts 251°
2026-05-06 08:10 48.44675 -4.42356 319 ft 42 kts 251°
2026-05-06 08:10 48.44577 -4.42780 305 ft 44 kts 251°
2026-05-06 08:11 48.44481 -4.43217 301 ft 43 kts 252°
2026-05-06 08:11 48.44399 -4.43556 301 ft 28 kts 252°
2026-05-06 08:11 48.44369 -4.43716 301 ft 12 kts 266°
2026-05-06 08:11 48.44374 -4.43813 296 ft 7 kts 245°
2026-05-06 08:12 48.44345 -4.43789 298 ft 6 kts 84°
2026-05-06 08:12 48.44362 -4.43738 298 ft 3 kts 63°
2026-05-06 08:12 48.44365 -4.43729 300 ft 0 kts 63°
2026-05-06 08:12 48.44371 -4.43706 300 ft 13 kts 70°
2026-05-06 08:13 48.44427 -4.43453 302 ft 29 kts 72°
2026-05-06 08:13 48.44491 -4.43161 299 ft 30 kts 71°
2026-05-06 08:13 48.44558 -4.42869 303 ft 28 kts 72°
2026-05-06 08:13 48.44618 -4.42597 310 ft 26 kts 71°
2026-05-06 08:14 48.44673 -4.42357 317 ft 23 kts 70°
2026-05-06 08:14 48.44672 -4.42173 328 ft 15 kts 131°
2026-05-06 08:14 48.44590 -4.42112 332 ft 12 kts 161°
2026-05-06 08:14 48.44514 -4.42102 330 ft 11 kts 208°
2026-05-06 08:15 48.44460 -4.42171 332 ft 10 kts 221°
2026-05-06 08:15 48.44440 -4.42183 331 ft 1 kts 140°
2026-05-06 08:15 48.44446 -4.42172 331 ft 2 kts 48°
2026-05-06 08:15 48.44491 -4.42113 328 ft 9 kts 58°
2026-05-06 08:16 48.44512 -4.42028 332 ft 3 kts 73°
2026-05-06 08:16 48.44514 -4.41991 332 ft 5 kts 101°
2026-05-06 08:16 48.44489 -4.41975 329 ft 3 kts 178°
2026-05-06 08:16 48.44470 -4.41982 331 ft 2 kts 196°
2026-05-06 08:17 48.44458 -4.41988 329 ft 2 kts 199°
2026-05-06 08:17 48.44449 -4.41994 330 ft 1 kts 201°
2026-05-06 08:17 48.44443 -4.41997 331 ft 0 kts 201°